星链-4789 (STARLINK-4789 )

导读

STARLINK-4789是美国SpaceX星链互联网卫星星座的一员,于2022年9月19日发射升空,属于星链项目批量部署的低轨卫星之一。它运行在近地轨道,主要为全球用户提供高速宽带互联网服务,尤其覆盖偏远与网络基础设施匮乏区域,延续了星链星座规模化部署、构建全球低轨卫星通信网络的目标。

Basic Information
目录编号:
53868
目录名称:
STARLINK-4789
国际标识:
2022-114BC
轨道中心:
EARTH
卫星名称:
星链-4789
卫星全名:
星链-4789 (STARLINK-4789 )
卫星状态:
在轨 (已飞行1367 天)
发射日期:
2022-09-19 UTC
国别 :
美国 (US)
星等 :
--
Orbit Information
数据来源 国际轨道数据 AOE轨道数据
星历时间 2026-06-16T15:40:41+0800
1天前
查看轨道信息
2026-06-15T07:00:00+0800
2天前
查看轨道信息
半长轴 6917.915km 6917.763km
偏心率 0.0001236 0.0001361
轨道倾角 53.160° 53.158°
近地点辐角 70.596° 66.505°
升交点赤经 181.170° 187.291°
平近点角 289.517° 93.773°
近地点 538.922km 538.684km
远地点 540.634km 540.568km
周期 95.438分钟 95.435分钟
每日圈数 15.088289 15.088785
Detailed Information
固有亮度:
5
最大亮度:
2.5
卫星平台:
Starlink v1.5
覆盖范围:
全球
运营商:
太空探索技术公司
运营商所在国:
美国
制造商(研发单位):
太空探索技术公司
制造商所在国:
美国
使用方式:
暂无
Satellite Introduction
星链(Starlink)计划是由太空探索技术公司(SpaceX)提出的一个巨型低轨卫星互联网星座项目,计划在2019年至2024年间在太空搭建由约1.2万颗卫星组成的“星链”网络,其中1584颗将部署在地球上空550千米处的近地轨道,并从2020年开始工作。该卫星仍在工作。
2D Orbit Map
3D Orbit Map
Orbit Altitude Analysis Chart
Orbit Inclination Analysis Chart
Orbit Comprehensive Analysis Chart
View Comprehensive Chart